Location: Landeleau
(48.2273°N, 3.7285°W)
Time: 11:15:38
(UTC+00:00)

NOSS 2-1 (C) - Pass Details

Date: 30 March 2020
Orbit: 450 x 1753 km, 63.3° (Epoch: 20 April)

Event Time Altitude Azimuth Distance (km) Brightness Sun altitude
Rises 19:03:33 0° 230° (SW) 2,463 7.3 -4.2°
Reaches altitude 10° 19:05:38 10° 234° (SW) 1,580 6.3 -4.6°
Maximum altitude 19:08:58 58° 315° (NW) 549 3.7 -5.1°
Drops below altitude 10° 19:12:40 10° 36° (NE) 1,753 5.7 -5.7°
Sets 19:15:04 0° 40° (NE) 2,772 6.6 -6.1°
